Location: U�a de Gato
(27.2982°N, 113.3350°W)
Time: 00:52:25
(UTC+00:00)

Daily predictions for brighter satellites

Satellite Brightness Start Highest point End
(mag) Time Altitude Azimuth Time Altitude Azimuth Time Altitude Azimuth
CZ-3B R/B 3.8 02:35:34 10° WSW 02:38:47 53° S 02:47:50 10° ESE
Nadezhda 3 Rocket 4.0 02:33:45 10° N 02:39:56 71° E 02:46:02 10° SSE
ERBS 4.4 02:37:09 10° WSW 02:40:12 32° NW 02:43:14 10° NNE
MOS 1 Rocket 3.7 02:36:37 10° NNE 02:42:00 61° E 02:47:12 10° S
Abrixas rocket 2.9 02:41:31 10° WNW 02:44:16 42° SW 02:47:00 10° SSE
Skynet4D Del rocket 4.2 02:40:36 10° SW 02:45:30 36° SSE 02:50:43 10° E
USA 267 3.3 02:39:51 10° NE 02:46:25 89° NW 02:52:58 10° SW
COSMOS 2406 4.0 02:53:39 10° SSE 02:58:32 29° ESE 03:03:24 10° NE
Cosmos 1766 Rocket 4.4 02:54:16 10° SSW 02:58:38 57° W 03:03:02 10° N
YAOGAN 1 4.3 02:57:04 10° SSW 03:00:59 34° W 03:04:54 10° NNW
USA 186 2.0 03:00:48 15° SE 03:02:20 28° ENE 03:04:24 10° NNE
Cosmos 1933 3.5 03:00:31 10° N 03:04:31 53° E 03:08:30 10° SSE
ISS -3.6 03:02:34 10° NW 03:05:53 61° NE 03:08:16 17° SE
CZ-2C R/B 4.5 03:01:57 10° NE 03:05:57 30° E 03:09:54 10° SSE
Cosmos 292 Rocket 4.2 03:01:43 10° N 03:06:13 42° ENE 03:10:08 13° SE
Cosmos 2251 Rocket 3.5 03:01:13 10° S 03:06:22 66° ESE 03:11:34 10° NNE
FALCON 9 DEB 4.4 03:04:23 10° S 03:07:04 21° SE 03:08:59 14° E
Gbstr 26 Del rocket 4.5 03:05:12 10° N 03:07:55 18° NE 03:10:05 12° E
Cosmos 1151 Rocket 2.9 03:06:46 10° N 03:11:00 67° E 03:15:14 10° SSE
Meteor 2-12 Rocket 4.4 03:05:06 10° S 03:11:15 80° E 03:17:25 10° N
Cosmos 1782 4.0 03:09:01 10° NNE 03:12:19 24° E 03:13:54 19° ESE
Cosmos 1959 Rocket 4.5 03:09:15 10° S 03:15:28 75° E 03:21:47 10° N
SL-4 R/B 2.0 03:11:29 10° SSW 03:15:40 57° SE 03:19:30 10° NE
Centaur D AC-25 4.2 03:12:52 10° SSW 03:16:50 26° SE 03:26:19 10° E
Cosmos 1408 Rocket 4.2 03:14:20 10° SSW 03:18:43 61° W 03:23:09 10° N
Cosmos 2082 Rocket 3.8 03:20:14 14° E 03:20:14 14° E 03:22:15 10° ENE
FREGAT/IRIS 2.4 03:19:03 28° SE 03:20:07 51° ENE 03:22:41 10° N
Cosmos 1743 Rocket 3.5 03:16:54 10° S 03:21:14 64° E 03:25:37 10° NNE
MOS 1 4.2 03:27:59 13° SSE 03:33:05 75° ENE 03:38:44 10° N
Sich 1 4.1 03:35:13 26° E 03:35:13 26° E 03:38:44 10° NE
NOSS 7 (D) 4.0 03:33:38 10° NNW 03:36:40 78° ENE 03:37:28 48° SE
Cosmos 1821 Rocket 4.3 03:36:00 21° SSE 03:39:34 41° E 03:45:15 10° NNE
Resurs 1-3 4.1 03:38:33 33° ESE 03:39:44 41° ENE 03:43:50 10° N
Cosmos 614 Rocket 4.0 03:35:15 10° S 03:40:12 53° ESE 03:45:13 10° NNE
Cosmos 1500 Rocket 3.7 03:37:00 10° S 03:41:18 73° W 03:45:36 10° N
Cosmos 1302 Rocket 4.3 03:36:39 10° NNW 03:41:49 68° WSW 03:46:05 15° S
ARGOS 4.0 03:36:50 10° S 03:42:03 50° W 03:47:16 10° NNW
Cosmos 2366 rocket 4.4 03:36:32 10° SSW 03:42:45 64° W 03:48:55 10° N
Delta 202 4.4 03:43:38 10° WSW 03:48:53 33° S 03:49:54 30° SSE
Sakura Rocket 3.4 03:44:46 10° W 03:50:49 68° SSW 03:52:14 44° SE
GPS 2-17 Rocket1 3.8 03:47:31 10° WSW 03:51:22 31° S 03:51:22 31° S
IRIDIUM 106 4.3 03:48:59 29° SSE 03:51:30 60° E 03:56:38 10° N
FUSE 4.2 03:48:00 10° WSW 03:53:12 50° SSE 03:54:22 42° SE
Cosmos 972 Rocket 4.5 03:48:47 10° N 03:53:18 36° ENE 03:53:39 36° E
CZ-2C R/B 3.7 03:48:38 10° N 03:53:30 43° WNW 03:58:25 10° SW
Cosmos 405 4.5 03:50:38 10° NNW 03:53:47 34° W 03:55:59 17° SSW
Cosmos 1441 Rocket 3.2 03:56:51 61° ENE 03:56:51 61° ENE 04:00:21 10° NNE
Cosmos 1805 Rocket 3.4 04:02:36 42° S 04:04:04 89° WSW 04:08:30 10° N
Cosmos 1862 3.6 04:05:14 35° SSW 04:06:45 66° W 04:10:47 10° N
Ariane Rocket 4.4 04:03:10 10° SSW 04:07:45 35° W 04:12:21 10° NNW
Cosmos 2239 Rocket 4.3 04:07:26 38° SSE 04:09:47 67° E 04:15:52 10° NNE
Cosmos 1190 Rocket 3.9 04:10:00 59° ESE 04:10:13 60° ESE 04:15:25 10° NNE
Cosmos 1833 Rocket 2.7 04:07:34 10° SSW 04:13:10 81° WNW 04:18:47 10° NNE
Cosmos 407 Rocket 3.4 04:12:00 29° SSW 04:14:50 87° ESE 04:20:11 10° NNE
Aureole 1 Rocket 4.2 04:16:20 48° E 04:16:20 48° E 04:23:04 10° NNE
ATLAS 5 CENTAUR R/B 3.3 04:14:03 10° N 04:19:38 34° ENE 04:20:12 34° ENE
Cosmos 1697 Rocket 4.2 04:17:58 10° NNE 04:21:20 21° NE 04:21:20 21° NE
Cosmos 1992 Rocket 4.0 04:17:32 10° NNW 04:22:45 76° WSW 04:23:30 63° SSW
Cosmos 2228 Rocket 3.4 04:19:09 10° NNW 04:23:29 61° W 04:23:47 59° WSW
Resurs 01 Rocket 1.7 04:25:50 72° NNW 04:25:50 72° NNW 04:29:50 10° NNW
Palapa 6 Rocket 4.4 04:28:09 10° W 04:36:05 61° S 04:36:49 58° SSE
Skynet4D Del rocket 3.7 04:32:11 10° WSW 04:37:12 70° SW 04:37:12 70° SW
Cosmos 1656 3.9 04:35:31 10° NNW 04:40:11 59° NNE 04:40:11 59° NNE
Terra 4.4 04:47:47 11° NNE 04:47:47 11° NNE 04:48:01 10° NNE
Cosmos 1867 4.1 04:46:29 51° NNE 04:46:29 51° NNE 04:50:33 10° NNE
Cosmos 1140 Rocket 3.9 04:44:53 59° W 04:45:15 61° WNW 04:50:26 10° N
USA 234 4.3 04:57:09 31° NE 04:57:33 32° NE 05:03:08 10° NNW
Cosmos 2082 Rocket 2.9 05:01:55 47° W 05:02:40 50° WNW 05:08:12 10° N
USA 238 DEB 3.8 05:10:41 68° NNW 05:10:41 68° NNW 05:16:53 10° NNE
USA 238 3.8 05:10:57 66° NNW 05:10:57 66° NNW 05:16:59 10° NNE
CZ-3A R/B 3.5 05:02:26 10° W 05:20:25 57° SW 05:20:25 57° SW
CENTAUR R/B 4.3 05:48:44 22° NNE 05:48:44 22° NNE 05:50:59 10° NNE
Cosmos 1980 Rocket 4.1 05:44:13 10° NNW 05:46:31 25° N 05:46:31 25° N
ATLAS 5 CENTAUR R/B 4.2 05:58:33 10° NW 06:01:44 27° WNW 06:01:44 27° WNW
CZ-2D R/B 4.5 09:03:10 10° NNE 09:04:39 19° NNE 09:04:39 19° NNE
Cosmos 2297 Rocket 4.5 09:14:38 18° N 09:14:38 18° N 09:16:08 10° N
SL-16 R/B 4.1 09:14:06 31° N 09:14:06 31° N 09:17:14 10° N
ADEOS II 4.5 09:10:32 10° NNE 09:12:07 19° NE 09:12:07 19° NE
SJ 16-02 4.5 09:30:09 11° NNE 09:30:09 11° NNE 09:30:21 10° NNE
Cosmos 2237 Rocket 4.5 09:27:29 10° NNW 09:28:39 17° NNW 09:28:39 17° NNW
USA 229 DEB 4.0 09:58:21 56° NNE 09:58:21 56° NNE 10:03:30 10° NNE
USA 229 4.0 09:58:27 56° NNE 09:58:27 56° NNE 10:03:33 10° NNE
Cosmos 2227 Rocket 4.4 10:02:41 15° NNW 10:02:41 15° NNW 10:04:08 10° NNW
SeaSat 1 4.2 10:03:28 10° NE 10:06:50 25° E 10:06:50 25° E
Resurs 1-4 Rocket 4.5 10:04:03 10° NNW 10:04:46 13° NNW 10:04:46 13° NNW
NOSS 3-1 (A) 4.0 10:09:54 47° NE 10:09:54 47° NE 10:13:59 10° NNE
ATLAS 3B CENTAUR R/B 3.3 10:07:04 54° W 10:10:13 85° N 10:16:41 10° E
Cosmos 2112 Rocket 4.5 10:22:49 10° N 10:27:35 58° NE 10:27:35 58° NE
ARIANE 5 R/B 3.2 10:35:45 10° N 10:39:42 46° NNW 10:39:42 46° NNW
Atlas Centaur 2 3.3 10:40:13 43° SSE 10:41:02 44° SSE 10:48:44 10° E
SL-16 R/B 2.3 10:36:19 10° NNW 10:41:07 63° NW 10:41:07 63° NW
Delta 142 4.5 10:44:36 41° E 10:44:36 41° E 10:47:30 10° E
Cosmos 1680 Rocket 4.2 10:40:25 10° NNW 10:43:58 44° NNW 10:43:58 44° NNW
IDEFIX/ARIANE 42P 2.5 10:40:56 10° N 10:45:56 80° NNW 10:45:56 80° NNW
OAO 3 Rocket 3.7 10:46:46 55° N 10:46:46 55° N 10:51:28 10° ENE
Cosmos 372 Rocket 3.9 10:48:08 81° NNW 10:48:08 81° NNW 10:53:09 10° NNE
ERBS 4.5 10:52:40 23° E 10:52:40 23° E 10:54:32 10° ESE
Cosmos 2263 Rocket 2.2 10:52:29 62° WNW 10:52:29 62° WNW 10:57:54 10° N
Cosmos 1602 Rocket 4.5 10:48:29 10° N 10:52:39 45° E 10:54:04 33° SE
Meteor 2-10 4.1 10:54:32 61° WNW 10:54:32 61° WNW 10:59:44 10° N
OAO 1 Rocket 4.5 10:54:30 65° SSE 10:54:36 65° SSE 10:59:55 10° ENE
ADEOS II 3.9 10:50:59 10° NNW 10:53:03 17° NW 10:53:03 17° NW
SL-08 R/B 3.9 10:58:49 45° NW 10:58:49 45° NW 11:02:28 10° NNW
Cosmos 2084 3.9 11:01:06 51° SE 11:01:26 53° ESE 11:05:43 10° NE
Cosmos 1125 Rocket 4.2 11:00:14 29° SSE 11:02:29 49° ESE 11:07:30 10° NNE
Hubble Space Telescope 3.1 11:05:00 14° SE 11:05:00 14° SE 11:06:46 10° ESE
Cosmos 1553 Rocket 4.0 11:03:39 26° S 11:07:12 73° E 11:13:15 10° N
CZ-2C R/B 3.3 11:02:53 10° NNE 11:07:13 41° E 11:10:05 20° SSE
Cosmos 1607 3.9 11:06:03 10° NNW 11:12:25 64° WSW 11:18:45 10° SSE
Cosmos 1844 Rocket 4.0 11:14:06 11° SSE 11:19:00 36° ESE 11:24:03 10° NE
Cosmos 2298 Rocket 4.1 11:19:47 45° WSW 11:20:56 55° WNW 11:26:10 10° N
Landsat 5 3.4 11:19:44 21° SSE 11:22:14 73° ENE 11:26:08 10° N
ERS-2 2.5 11:20:54 15° SSE 11:23:48 62° ENE 11:27:24 10° N
PSLV R/B 3.5 11:19:46 10° NNE 11:24:09 85° ESE 11:26:02 34° S
BREEZE-M DEB (TANK) 4.4 11:22:50 27° WNW 11:24:26 36° NNW 11:34:29 10° NE
Meteor 2-8 Rocket 4.4 11:20:26 21° S 11:24:41 86° W 11:30:50 10° N
Cosmos 1626 Rocket 3.9 11:21:16 10° NNW 11:25:05 43° W 11:25:05 43° W
CZ-2C R/B 3.9 11:24:26 10° NNW 11:27:07 28° NW 11:27:07 28° NW
GPS 2-18 Rocket1 4.2 11:28:50 28° SSE 11:28:50 28° SSE 11:31:36 10° ESE
Cosmos 1356 Rocket 4.1 11:25:14 16° SSE 11:28:28 53° E 11:32:34 10° NNE
ATLAS CENTAUR R/B 1.3 11:27:26 47° SW 11:28:38 82° WNW 11:32:47 10° NNE
Cosmos 1244 Rocket 4.4 11:24:37 10° N 11:30:58 76° W 11:37:12 10° S
deb Chang Zheng 4 4.0 11:27:03 10° NNE 11:31:21 62° ESE 11:34:46 16° S
Cosmos 1953 4.2 11:33:36 17° NW 11:33:36 17° NW 11:35:14 10° NNW
S3M 4.0 11:28:04 11° S 11:34:15 89° E 11:40:40 10° N
Meteor 2-21 Rocket 4.4 11:28:27 10° NNW 11:34:26 65° W 11:40:26 10° S
Cosmos 1908 3.6 11:34:23 41° W 11:34:34 42° W 11:38:17 10° N
Cosmos 2228 2.9 11:33:45 29° SSW 11:35:54 75° W 11:40:16 10° N
Meteor 2-16 Rocket 4.4 11:31:28 10° N 11:37:37 76° W 11:43:43 10° S
SL-4 R/B 3.3 11:37:40 10° NNW 11:40:48 34° NE 11:43:59 10° ESE
CZ-4C R/B 3.2 11:43:15 38° W 11:43:15 38° W 11:46:00 10° NNW
Cosmos 1758 Rocket 3.4 11:39:16 10° N 11:43:35 88° W 11:47:55 10° S
CZ-4B R/B 3.4 11:40:48 10° SE 11:43:47 30° ENE 11:46:43 10° NNE
NOSS 2-2 (C) 4.4 11:41:31 14° S 11:44:22 37° ESE 11:47:40 10° NE
SeaSat 1 3.6 11:40:48 10° N 11:44:56 28° WNW 11:46:37 23° W
SL-23 DEB 3.4 11:41:26 10° NW 11:45:46 76° SW 11:48:56 10° SE
PAYLOAD A 4.2 11:40:59 10° N 11:46:10 56° WNW 11:49:42 19° SSW
Cosmos 1943 3.3 11:42:51 10° NNW 11:48:28 77° ENE 11:54:05 10° SSE
SL-08 R/B 4.4 11:42:46 10° N 11:48:59 78° W 11:55:14 10° S
H-2A R/B 2.3 11:47:50 19° SSW 11:50:25 40° W 11:54:17 10° NNW
GPS 2-15 Rocket1 4.4 11:51:22 22° SW 11:52:51 25° S 11:56:54 10° SE
